Regional Weather Roundup
Issued by NWS

Home | Current Version | Previous Version | Graphics & Text | Print | Product List | Glossary On
Versions: 1 2 3 4 5 6 7 8 9 10 11 12 13 14 15 16 17 18 19 20 21 22 23 24 25 26 27 28 29 30 31 32 33 34 35 36 37 38 39 40 41 42 43 44 45 46 47 48 49 50
000
ASUS44 KMEG 250710
RWRTN
TENNESSEE HOURLY STATE WEATHER ROUNDUP
NATIONAL WEATHER SERVICE MEMPHIS TN
200 AM CDT THU MAY 25 2017

TNZ002-004-019-021-049-052-054-088>092-250800-
WEST TENNESSEE

CITY           SKY/WX    TMP DP  RH WIND       PRES   REMARKS
MEMPHIS INTL   CLEAR     55  51  86 W5        29.69S
NWS MEMPHIS      N/A     52 N/A N/A MISG        N/A
JACKSON        MOCLDY    54  51  90 W7        29.66R
DYERSBURG        N/A    N/A N/A N/A MISG        N/A
COVINGTON      CLEAR     55  52  88 W6        29.67S
UNION CITY     PTCLDY    54  50  87 W5        29.62F
BOLIVAR        CLEAR     54  50  87 SW5       29.66R
PARIS          MOCLDY    54  50  87 SW6       29.61S
HUNTINGDON     CLOUDY    54  52  94 CALM      29.62S
LEXINGTON      PTCLDY    54  50  87 MISG      29.64R
SELMER         CLEAR     52  52 100 W7        29.65S
SAVANNAH       PTCLDY    54  54 100 W5        29.65R
$$

TNZ008-025-027-028-033-062-065-066-250800-
NORTH MIDDLE TENNESSEE

CITY           SKY/WX    TMP DP  RH WIND       PRES   REMARKS
NASHVILLE      PTCLDY    55  53  93 SW5       29.60S
PORTLAND       CLOUDY    55  52  88 SW8       29.56F
CLARKSVILLE    CLOUDY    54  52  93 W7        29.59S
SMYRNA         CLOUDY    55  53  93 S3        29.61F
COOKEVILLE     CLOUDY    54  52  94 SW5       29.58S
GALLATIN       PTCLDY    57  54  88 VRB3      29.61S
CROSSVILLE     CLEAR     48  47  96 CALM      29.60S
$$

TNZ061-075-076-078-094-096-097-250800-
SOUTH MIDDLE TENNESSEE

CITY           SKY/WX    TMP DP  RH WIND       PRES   REMARKS
FAYETTEVILLE   PTCLDY    55  54  94 W6        29.63R
TULLAHOMA      MOCLDY    54  52  94 SW7       29.63S
WINCHESTER     CLOUDY    54  54 100 CALM        N/A
MCMINNVILLE    MOCLDY    54  54 100 SW6       29.61S
COLUMBIA       PTCLDY    54  52  94 SW5       29.60S
SHELBYVILLE    PTCLDY    54  54 100 SW5       29.62R
$$

TNZ017-018-042-046-047-250800-
NORTHEAST TENNESSEE

CITY           SKY/WX    TMP DP  RH WIND       PRES   REMARKS
TRI CITIES     CLOUDY    56  54  93 SW6       29.56S
ELIZABETHTON   CLOUDY    57  54  88 VRB6      29.55F
$$

TNZ012-013-036-069-073-074-250800-
CENTRAL EAST TENNESSEE

CITY           SKY/WX    TMP DP  RH WIND       PRES   REMARKS
KNOXVILLE      CLEAR     53  49  86 S7        29.57F
OAK RIDGE      CLEAR     52  48  86 CALM      29.59S
DOWNTOWN KNOXV CLEAR     54  50  87 W3        29.58F
GATLINBURG     CLEAR     52  48  87 S5        29.57F
MORRISTOWN     CLEAR     54  50  87 W8        29.56S
JACKSBORO      CLEAR     48  48 100 CALM      29.59F
$$

TNZ083-085-099-250800-
SOUTHEAST TENNESSEE

CITY           SKY/WX    TMP DP  RH WIND       PRES   REMARKS
CHATTANOOGA    CLOUDY    58  54  86 SW6       29.61F
$$

SKY/WX REPORTED AS FAIR MEANS FEW OR NO CLOUDS BELOW
12 THOUSAND FEET.





USA.gov is the U.S. government's official web portal to all federal, state and local government web resources and services.